Time,TemperatureF,DewpointF,PressureIn,WindDirection,WindDirectionDegrees,WindSpeedMPH,WindSpeedGustMPH,Humidity,HourlyPrecipIn,Conditions,Clouds,dailyrainin,SoftwareType,DateUTC
2013-08-14 00:07:00,83.3,75.7,29.98,North,0,7.4,-999.0,78,-99.99,,,0.00,Acu-Link.com,2013-08-14 04:07:00,
2013-08-14 00:22:00,83.3,75.7,29.98,North,0,7.4,-999.0,78,-99.99,,,0.00,Acu-Link.com,2013-08-14 04:22:00,
2013-08-14 00:38:00,83.3,75.7,29.98,North,0,7.4,-999.0,78,-99.99,,,0.00,Acu-Link.com,2013-08-14 04:38:00,
2013-08-14 00:53:00,83.3,75.7,29.98,North,0,7.4,-999.0,78,-99.99,,,0.00,Acu-Link.com,2013-08-14 04:53:00,
2013-08-14 01:08:00,83.3,75.7,29.98,North,0,7.4,-999.0,78,-99.99,,,0.00,Acu-Link.com,2013-08-14 05:08:00,
2013-08-14 01:23:00,83.3,75.7,29.98,North,0,7.4,-999.0,78,-99.99,,,0.00,Acu-Link.com,2013-08-14 05:23:00,
2013-08-14 01:39:00,83.3,75.7,29.98,North,0,7.4,-999.0,78,-99.99,,,0.00,Acu-Link.com,2013-08-14 05:39:00,
2013-08-14 01:54:00,83.3,75.7,29.98,North,0,7.4,-999.0,78,-99.99,,,0.00,Acu-Link.com,2013-08-14 05:54:00,
2013-08-14 02:09:00,83.3,75.7,29.98,North,0,7.4,-999.0,78,-99.99,,,0.00,Acu-Link.com,2013-08-14 06:09:00,
2013-08-14 02:24:00,83.3,75.7,29.98,North,0,7.4,-999.0,78,-99.99,,,0.00,Acu-Link.com,2013-08-14 06:24:00,
2013-08-14 02:39:00,83.3,75.7,29.98,North,0,7.4,-999.0,78,-99.99,,,0.00,Acu-Link.com,2013-08-14 06:39:00,
2013-08-14 02:55:00,83.3,75.7,29.98,North,0,7.4,-999.0,78,-99.99,,,0.00,Acu-Link.com,2013-08-14 06:55:00,
2013-08-14 03:10:00,83.3,75.7,29.98,North,0,7.4,-999.0,78,-99.99,,,0.00,Acu-Link.com,2013-08-14 07:10:00,
2013-08-14 03:25:00,83.3,75.7,29.98,North,0,7.4,-999.0,78,-99.99,,,0.00,Acu-Link.com,2013-08-14 07:25:00,
2013-08-14 03:40:00,83.3,75.7,29.98,North,0,7.4,-999.0,78,-99.99,,,0.00,Acu-Link.com,2013-08-14 07:40:00,
2013-08-14 03:55:00,83.3,75.7,29.98,North,0,7.4,-999.0,78,-99.99,,,0.00,Acu-Link.com,2013-08-14 07:55:00,
2013-08-14 04:11:00,83.3,75.7,29.98,North,0,7.4,-999.0,78,-99.99,,,0.00,Acu-Link.com,2013-08-14 08:11:00,
2013-08-14 04:26:00,83.3,75.7,29.98,North,0,7.4,-999.0,78,-99.99,,,0.00,Acu-Link.com,2013-08-14 08:26:00,
2013-08-14 04:41:00,83.3,75.7,29.98,North,0,7.4,-999.0,78,-99.99,,,0.00,Acu-Link.com,2013-08-14 08:41:00,
2013-08-14 04:56:00,83.3,75.7,29.98,North,0,7.4,-999.0,78,-99.99,,,0.00,Acu-Link.com,2013-08-14 08:56:00,
2013-08-14 05:11:00,83.3,75.7,29.98,North,0,7.4,-999.0,78,-99.99,,,0.00,Acu-Link.com,2013-08-14 09:11:00,
2013-08-14 05:27:00,83.3,75.7,29.98,North,0,7.4,-999.0,78,-99.99,,,0.00,Acu-Link.com,2013-08-14 09:27:00,
2013-08-14 05:42:00,83.3,75.7,29.98,North,0,7.4,-999.0,78,-99.99,,,0.00,Acu-Link.com,2013-08-14 09:42:00,
2013-08-14 05:57:00,83.3,75.7,29.98,North,0,7.4,-999.0,78,-99.99,,,0.00,Acu-Link.com,2013-08-14 09:57:00,
2013-08-14 06:12:00,83.3,75.7,29.98,North,0,7.4,-999.0,78,-99.99,,,0.00,Acu-Link.com,2013-08-14 10:12:00,
2013-08-14 06:28:00,83.3,75.7,29.98,North,0,7.4,-999.0,78,-99.99,,,0.00,Acu-Link.com,2013-08-14 10:28:00,
2013-08-14 06:43:00,79.0,74.8,29.94,West,270,0.0,-999.0,87,-99.99,,,0.00,Acu-Link.com,2013-08-14 10:43:00,
2013-08-14 06:58:00,80.8,75.5,29.95,SE,135,2.7,-999.0,84,-99.99,,,0.00,Acu-Link.com,2013-08-14 10:58:00,
2013-08-14 07:13:00,82.2,75.8,29.95,SE,135,2.2,-999.0,81,-99.99,,,0.00,Acu-Link.com,2013-08-14 11:13:00,
2013-08-14 07:28:00,83.3,76.1,29.95,ESE,112,3.8,-999.0,79,-99.99,,,0.00,Acu-Link.com,2013-08-14 11:28:00,
2013-08-14 07:43:00,84.4,76.7,29.95,ESE,112,3.1,-999.0,78,-99.99,,,0.00,Acu-Link.com,2013-08-14 11:43:00,
2013-08-14 07:59:00,84.4,77.1,29.95,South,180,5.1,-999.0,79,-99.99,,,0.00,Acu-Link.com,2013-08-14 11:59:00,
2013-08-14 08:14:00,84.9,77.3,29.95,SE,135,6.3,-999.0,78,-99.99,,,0.00,Acu-Link.com,2013-08-14 12:14:00,
2013-08-14 08:29:00,85.8,77.0,29.95,SE,135,4.7,-999.0,75,-99.99,,,0.00,Acu-Link.com,2013-08-14 12:29:00,
2013-08-14 08:44:00,86.5,76.8,29.95,SSE,157,4.3,-999.0,73,-99.99,,,0.00,Acu-Link.com,2013-08-14 12:44:00,
2013-08-14 08:59:00,87.4,76.9,29.96,South,180,3.8,-999.0,71,-99.99,,,0.00,Acu-Link.com,2013-08-14 12:59:00,
2013-08-14 09:14:00,87.8,76.3,29.96,SSE,157,3.1,-999.0,69,-99.99,,,0.00,Acu-Link.com,2013-08-14 13:14:00,
2013-08-14 09:30:00,87.4,76.0,29.96,SSE,157,7.8,-999.0,69,-99.99,,,0.00,Acu-Link.com,2013-08-14 13:30:00,
2013-08-14 09:45:00,88.0,76.5,29.96,North,0,4.7,-999.0,69,-99.99,,,0.00,Acu-Link.com,2013-08-14 13:45:00,
2013-08-14 10:00:00,89.1,76.2,29.96,ENE,67,2.7,-999.0,66,-99.99,,,0.00,Acu-Link.com,2013-08-14 14:00:00,
2013-08-14 10:15:00,88.2,76.2,29.96,ENE,67,4.7,-999.0,68,-99.99,,,0.00,Acu-Link.com,2013-08-14 14:15:00,
2013-08-14 10:30:00,88.2,75.8,29.96,East,90,3.1,-999.0,67,-99.99,,,0.00,Acu-Link.com,2013-08-14 14:30:00,
2013-08-14 10:46:00,88.3,75.5,29.96,SSE,157,8.9,-999.0,66,-99.99,,,0.00,Acu-Link.com,2013-08-14 14:46:00,
2013-08-14 11:01:00,89.6,76.2,29.96,ESE,112,6.7,-999.0,65,-99.99,,,0.00,Acu-Link.com,2013-08-14 15:01:00,
2013-08-14 11:16:00,88.9,76.9,29.95,East,90,9.8,-999.0,68,-99.99,,,0.00,Acu-Link.com,2013-08-14 15:16:00,
2013-08-14 11:31:00,88.2,77.1,29.95,ENE,67,5.8,-999.0,70,-99.99,,,0.00,Acu-Link.com,2013-08-14 15:31:00,
2013-08-14 11:47:00,89.4,77.4,29.95,ESE,112,4.3,-999.0,68,-99.99,,,0.00,Acu-Link.com,2013-08-14 15:47:00,
2013-08-14 12:02:00,90.1,77.2,29.94,East,90,6.3,-999.0,66,-99.99,,,0.00,Acu-Link.com,2013-08-14 16:02:00,
2013-08-14 12:17:00,88.9,76.9,29.93,NNE,22,9.4,-999.0,68,-99.99,,,0.00,Acu-Link.com,2013-08-14 16:17:00,
2013-08-14 12:32:00,88.7,77.2,29.93,SE,135,10.3,-999.0,69,-99.99,,,0.00,Acu-Link.com,2013-08-14 16:32:00,
2013-08-14 12:47:00,87.6,77.9,29.93,SSE,157,6.3,-999.0,73,-99.99,,,0.00,Acu-Link.com,2013-08-14 16:47:00,
2013-08-14 13:03:00,87.6,77.4,29.93,East,90,5.1,-999.0,72,-99.99,,,0.00,Acu-Link.com,2013-08-14 17:03:00,
2013-08-14 13:18:00,87.6,77.4,29.93,ESE,112,7.8,-999.0,72,-99.99,,,0.00,Acu-Link.com,2013-08-14 17:18:00,
2013-08-14 13:33:00,88.9,77.8,29.92,ESE,112,7.8,-999.0,70,-99.99,,,0.00,Acu-Link.com,2013-08-14 17:33:00,
2013-08-14 13:48:00,89.2,78.1,29.92,East,90,6.7,-999.0,70,-99.99,,,0.00,Acu-Link.com,2013-08-14 17:48:00,
2013-08-14 14:03:00,88.7,77.6,29.91,ENE,67,3.8,-999.0,70,-99.99,,,0.00,Acu-Link.com,2013-08-14 18:03:00,
2013-08-14 14:19:00,88.3,78.1,29.91,ENE,67,5.8,-999.0,72,-99.99,,,0.00,Acu-Link.com,2013-08-14 18:19:00,
2013-08-14 14:34:00,88.7,77.6,29.91,East,90,7.4,-999.0,70,-99.99,,,0.00,Acu-Link.com,2013-08-14 18:34:00,
2013-08-14 14:49:00,89.1,78.0,29.90,ESE,112,5.1,-999.0,70,-99.99,,,0.00,Acu-Link.com,2013-08-14 18:49:00,
2013-08-14 15:04:00,88.9,77.8,29.90,ENE,67,9.8,-999.0,70,-99.99,,,0.00,Acu-Link.com,2013-08-14 19:04:00,
2013-08-14 15:19:00,88.9,77.8,29.90,NNE,22,6.3,-999.0,70,-99.99,,,0.00,Acu-Link.com,2013-08-14 19:19:00,
2013-08-14 15:35:00,89.4,78.3,29.90,SE,135,11.4,-999.0,70,-99.99,,,0.00,Acu-Link.com,2013-08-14 19:35:00,
2013-08-14 16:05:00,89.4,78.7,29.89,ENE,67,9.4,-999.0,71,-99.99,,,0.00,Acu-Link.com,2013-08-14 20:05:00,
2013-08-14 16:36:00,88.5,78.7,29.89,ESE,112,7.8,-999.0,73,-99.99,,,0.00,Acu-Link.com,2013-08-14 20:36:00,
2013-08-14 16:51:00,88.5,79.1,29.89,ESE,112,7.4,-999.0,74,-99.99,,,0.00,Acu-Link.com,2013-08-14 20:51:00,
2013-08-14 17:06:00,87.1,78.6,29.90,East,90,9.4,-999.0,76,-99.99,,,0.00,Acu-Link.com,2013-08-14 21:06:00,
2013-08-14 17:21:00,87.8,78.9,29.90,ESE,112,8.9,-999.0,75,-99.99,,,0.00,Acu-Link.com,2013-08-14 21:21:00,
2013-08-14 17:36:00,87.8,77.6,29.90,NE,45,6.7,-999.0,72,-99.99,,,0.00,Acu-Link.com,2013-08-14 21:36:00,
2013-08-14 17:52:00,87.4,76.4,29.91,SSE,157,5.8,-999.0,70,-99.99,,,0.00,Acu-Link.com,2013-08-14 21:52:00,
2013-08-14 18:07:00,86.9,76.8,29.91,ESE,112,6.7,-999.0,72,-99.99,,,0.00,Acu-Link.com,2013-08-14 22:07:00,
2013-08-14 18:22:00,86.4,77.1,29.92,ENE,67,6.3,-999.0,74,-99.99,,,0.00,Acu-Link.com,2013-08-14 22:22:00,
2013-08-14 18:37:00,86.2,76.5,29.92,ESE,112,3.8,-999.0,73,-99.99,,,0.00,Acu-Link.com,2013-08-14 22:37:00,
2013-08-14 18:52:00,85.6,76.0,29.93,ESE,112,6.7,-999.0,73,-99.99,,,0.00,Acu-Link.com,2013-08-14 22:52:00,
2013-08-14 19:08:00,85.3,75.2,29.93,ESE,112,6.3,-999.0,72,-99.99,,,0.00,Acu-Link.com,2013-08-14 23:08:00,
2013-08-14 19:23:00,85.1,75.0,29.93,ESE,112,6.3,-999.0,72,-99.99,,,0.00,Acu-Link.com,2013-08-14 23:23:00,
2013-08-14 19:38:00,84.9,74.9,29.95,SSE,157,6.7,-999.0,72,-99.99,,,0.00,Acu-Link.com,2013-08-14 23:38:00,
2013-08-14 19:53:00,84.7,74.7,29.96,South,180,3.8,-999.0,72,-99.99,,,0.00,Acu-Link.com,2013-08-14 23:53:00,
2013-08-14 20:08:00,84.6,74.9,29.96,ESE,112,5.8,-999.0,73,-99.99,,,0.00,Acu-Link.com,2013-08-15 00:08:00,
2013-08-14 20:24:00,84.4,75.2,29.97,East,90,3.1,-999.0,74,-99.99,,,0.00,Acu-Link.com,2013-08-15 00:24:00,
2013-08-14 20:39:00,84.2,75.8,29.97,SW,225,1.6,-999.0,76,-99.99,,,0.00,Acu-Link.com,2013-08-15 00:39:00,
2013-08-14 20:54:00,84.0,76.0,29.97,East,90,2.7,-999.0,77,-99.99,,,0.00,Acu-Link.com,2013-08-15 00:54:00,
2013-08-14 21:09:00,84.0,76.0,29.97,ESE,112,3.8,-999.0,77,-99.99,,,0.00,Acu-Link.com,2013-08-15 01:09:00,
2013-08-14 21:25:00,83.8,76.2,29.98,ESE,112,2.7,-999.0,78,-99.99,,,0.00,Acu-Link.com,2013-08-15 01:25:00,
2013-08-14 21:40:00,83.8,76.6,29.98,ESE,112,4.3,-999.0,79,-99.99,,,0.00,Acu-Link.com,2013-08-15 01:40:00,
2013-08-14 21:55:00,83.7,76.8,29.98,ESE,112,3.1,-999.0,80,-99.99,,,0.00,Acu-Link.com,2013-08-15 01:55:00,
2013-08-14 22:10:00,83.7,77.6,29.99,ESE,112,3.1,-999.0,82,-99.99,,,0.00,Acu-Link.com,2013-08-15 02:10:00,
2013-08-14 22:25:00,83.5,77.4,29.99,ENE,67,4.3,-999.0,82,-99.99,,,0.00,Acu-Link.com,2013-08-15 02:25:00,
2013-08-14 22:41:00,83.3,77.6,29.99,NE,45,5.8,-999.0,83,-99.99,,,0.00,Acu-Link.com,2013-08-15 02:41:00,
2013-08-14 22:56:00,83.1,77.8,29.99,ESE,112,5.1,-999.0,84,-99.99,,,0.00,Acu-Link.com,2013-08-15 02:56:00,
2013-08-14 23:11:00,83.1,77.8,29.99,East,90,3.1,-999.0,84,-99.99,,,0.00,Acu-Link.com,2013-08-15 03:11:00,
2013-08-14 23:26:00,83.1,77.8,29.99,SSE,157,5.1,-999.0,84,-99.99,,,0.00,Acu-Link.com,2013-08-15 03:26:00,
2013-08-14 23:41:00,82.9,77.6,29.99,SE,135,3.8,-999.0,84,-99.99,,,0.00,Acu-Link.com,2013-08-15 03:41:00,
2013-08-14 23:57:00,82.8,77.4,29.99,ESE,112,4.7,-999.0,84,-99.99,,,0.00,Acu-Link.com,2013-08-15 03:57:00,